Date String (YYYY-MM-DD hh:mm:ss) UTC,Instrument flags,Ambient pressure (hPa),Sample flow (lpm),Bypass flow (lpm),Sample temperature (°C),Ambient temperature (°C),ASC tube jacket temperature (°C),LED temperature (°C),Box temperature (°C),Sample RH (%),Span deviation,Mass concentration (μg/m³),Mass concentration (μg/m³),Mass concentration (μg/m³)
DateTimeUTC,F1_M11,P_M11,Q1_M11,Q2_M11,T1_M11,T2_M11,T3_M11,T4_M11,T5_M11,U1_M11,ZSPAN_M11,X0_M11,X2_M11,X1_M11
2021-10-31 08:00:00,,0830.0,5.00,0.00,29.2,28.3,00.0,38.3,31.0,15.5,0000.0,0008.27,0001.87,0001.33
2021-10-31 08:01:00,,0829.9,5.01,0.00,29.2,28.3,00.0,38.3,31.0,15.5,0000.0,0008.46,0001.87,0001.33
2021-10-31 08:02:00,,0830.0,5.00,0.00,29.2,28.3,00.0,38.3,31.0,15.5,0000.0,0008.50,0001.91,0001.34
2021-10-31 08:03:00,,0829.9,5.00,0.00,29.2,28.3,00.0,38.3,31.0,15.5,0000.0,0008.58,0001.94,0001.34
2021-10-31 08:04:00,,0829.9,5.01,0.00,29.2,28.3,00.0,38.3,31.0,15.5,0000.0,0008.98,0001.94,0001.35
2021-10-31 08:05:00,,0829.9,4.99,0.00,29.2,28.3,00.0,38.3,31.0,15.5,0000.0,0009.26,0001.99,0001.36
2021-10-31 08:06:00,,0830.0,5.00,0.00,29.2,28.3,00.0,38.2,31.0,15.5,0000.0,0009.45,0002.01,0001.36
2021-10-31 08:07:00,,0830.1,5.00,0.00,29.2,28.3,00.0,38.2,31.0,15.5,0000.0,0009.66,0002.00,0001.37
2021-10-31 08:08:00,,0830.1,5.00,0.00,29.2,28.3,00.0,38.2,30.9,15.5,0000.0,0009.56,0001.97,0001.38
2021-10-31 08:09:00,,0830.1,5.01,0.00,29.2,28.3,00.0,38.2,30.9,15.5,0000.0,0008.95,0001.91,0001.38
2021-10-31 08:10:00,,0830.1,4.99,0.00,29.1,28.3,00.0,38.2,30.9,15.5,0000.0,0008.46,0001.94,0001.39
2021-10-31 08:11:00,,0830.1,5.00,0.00,29.1,28.3,00.0,38.2,30.9,15.6,0000.0,0006.91,0001.98,0001.40
2021-10-31 08:12:00,,0830.1,4.99,0.00,29.1,28.2,00.0,38.2,30.9,15.6,0000.0,0005.96,0001.97,0001.40
2021-10-31 08:13:00,,0830.1,5.00,0.00,29.1,28.2,00.0,38.2,30.9,15.6,0000.0,0005.80,0001.97,0001.40
2021-10-31 08:14:00,,0830.1,5.01,0.00,29.1,28.2,00.0,38.2,30.9,15.6,0000.0,0005.81,0001.99,0001.40
2021-10-31 08:15:00,,0830.1,4.99,0.00,29.1,28.2,00.0,38.2,30.9,15.6,0000.0,0005.57,0002.03,0001.42
2021-10-31 08:16:00,,0830.1,5.01,0.00,29.1,28.2,00.0,38.2,30.9,15.6,0000.0,0005.09,0002.06,0001.42
2021-10-31 08:17:00,,0830.1,4.99,0.00,29.1,28.2,00.0,38.2,30.9,15.6,0000.0,0004.58,0002.03,0001.44
2021-10-31 08:18:00,,0830.1,5.01,0.00,29.1,28.2,00.0,38.2,30.9,15.6,0000.0,0004.82,0002.10,0001.45
2021-10-31 08:19:00,,0830.1,5.00,0.00,29.1,28.2,00.0,38.2,30.9,15.6,0000.0,0005.68,0002.19,0001.45
2021-10-31 08:20:00,,0830.1,5.00,0.00,29.1,28.2,00.0,38.2,30.9,15.6,0000.0,0005.80,0002.23,0001.46
2021-10-31 08:21:00,,0830.1,4.99,0.00,29.1,28.2,00.0,38.2,30.9,15.6,0000.0,0006.65,0002.27,0001.47
2021-10-31 08:22:00,,0830.1,5.01,0.00,29.1,28.2,00.0,38.2,30.9,15.6,0000.0,0006.66,0002.28,0001.48
2021-10-31 08:23:00,,0830.1,5.00,0.00,29.1,28.2,00.0,38.2,30.8,15.6,0000.0,0006.80,0002.28,0001.48
2021-10-31 08:24:00,,0830.1,4.99,0.00,29.1,28.1,00.0,38.2,30.8,15.6,0000.0,0007.02,0002.29,0001.48
2021-10-31 08:25:00,,0830.1,5.00,0.00,29.1,28.1,00.0,38.2,30.8,15.6,0000.0,0007.40,0002.25,0001.48
2021-10-31 08:26:00,,0830.1,5.01,0.00,29.1,28.1,00.0,38.1,30.8,15.6,0000.0,0007.92,0002.26,0001.48
2021-10-31 08:27:00,,0830.0,5.00,0.00,29.0,28.1,00.0,38.1,30.8,15.6,0000.0,0007.88,0002.22,0001.48
2021-10-31 08:28:00,,0830.1,5.00,0.00,29.0,28.1,00.0,38.1,30.8,15.6,0000.0,0007.84,0002.20,0001.48
2021-10-31 08:29:00,,0830.1,5.00,0.00,29.0,28.1,00.0,38.1,30.8,15.6,0000.0,0007.50,0002.17,0001.48
2021-10-31 08:30:00,,0830.1,5.01,0.00,29.0,28.1,00.0,38.1,30.8,15.6,0000.0,0006.93,0002.14,0001.49
2021-10-31 08:31:00,,0830.1,4.99,0.00,29.0,28.1,00.0,38.1,30.8,15.6,0000.0,0007.17,0002.13,0001.49
2021-10-31 08:32:00,,0830.1,5.00,0.00,29.0,28.1,00.0,38.1,30.8,15.6,0000.0,0006.62,0002.11,0001.50
2021-10-31 08:33:00,,0830.1,5.00,0.00,29.0,28.1,00.0,38.1,30.8,15.6,0000.0,0007.97,0002.10,0001.49
2021-10-31 08:34:00,,0830.1,5.00,0.00,29.0,28.1,00.0,38.1,30.8,15.7,0000.0,0007.85,0002.11,0001.51
2021-10-31 08:35:00,,0830.1,5.00,0.00,29.0,28.1,00.0,38.1,30.8,15.7,0000.0,0007.68,0002.14,0001.54
2021-10-31 08:36:00,,0830.1,5.00,0.00,29.0,28.1,00.0,38.1,30.7,15.7,0000.0,0007.47,0002.15,0001.56
2021-10-31 08:37:00,,0830.1,5.00,0.00,29.0,28.0,00.0,38.1,30.7,15.7,0000.0,0007.19,0002.16,0001.57
2021-10-31 08:38:00,,0830.1,5.01,0.00,29.0,28.0,00.0,38.1,30.7,15.7,0000.0,0007.11,0002.19,0001.59
2021-10-31 08:39:00,,0830.1,5.01,0.00,28.9,28.0,00.0,38.1,30.7,15.8,0000.0,0007.42,0002.17,0001.60
2021-10-31 08:40:00,,0830.1,5.00,0.00,28.9,28.0,00.0,38.0,30.7,15.8,0000.0,0007.47,0002.21,0001.62
2021-10-31 08:41:00,,0830.1,5.00,0.00,28.9,28.0,00.0,38.0,30.7,15.8,0000.0,0007.41,0002.22,0001.63
2021-10-31 08:42:00,,0830.1,4.99,0.00,28.9,28.0,00.0,38.0,30.7,15.8,0000.0,0007.21,0002.25,0001.64
2021-10-31 08:43:00,,0830.1,5.00,0.00,28.9,28.0,00.0,38.0,30.7,15.8,0000.0,0006.76,0002.27,0001.66
2021-10-31 08:44:00,,0830.1,5.01,0.00,28.9,28.0,00.0,38.0,30.7,15.8,0000.0,0004.92,0002.23,0001.67
2021-10-31 08:45:00,,0830.1,4.99,0.00,28.9,28.0,00.0,38.0,30.7,15.9,0000.0,0005.08,0002.26,0001.67
2021-10-31 08:46:00,,0830.1,5.01,0.00,28.9,28.0,00.0,38.0,30.7,15.9,0000.0,0005.23,0002.27,0001.68
2021-10-31 08:47:00,,0830.1,4.99,0.00,28.9,27.9,00.0,38.0,30.7,15.9,0000.0,0005.20,0002.32,0001.69
2021-10-31 08:48:00,,0830.1,5.00,0.00,28.9,27.9,00.0,38.0,30.7,15.9,0000.0,0004.82,0002.31,0001.70
2021-10-31 08:49:00,,0830.1,5.00,0.00,28.9,27.9,00.0,38.0,30.6,15.9,0000.0,0005.21,0002.30,0001.72
2021-10-31 08:50:00,,0830.1,5.00,0.00,28.9,27.9,00.0,38.0,30.6,16.0,0000.0,0004.96,0002.30,0001.73
2021-10-31 08:51:00,,0830.1,5.00,0.00,28.9,27.9,00.0,38.0,30.6,16.0,0000.0,0005.78,0002.26,0001.72
2021-10-31 08:52:00,,0830.1,4.99,0.00,28.8,27.9,00.0,38.0,30.6,16.0,0000.0,0005.78,0002.28,0001.75
2021-10-31 08:53:00,,0830.1,5.01,0.00,28.8,27.9,00.0,37.9,30.6,16.0,0000.0,0006.38,0002.35,0001.75
2021-10-31 08:54:00,,0830.1,4.99,0.00,28.8,27.9,00.0,37.9,30.6,16.0,0000.0,0006.49,0002.38,0001.77
2021-10-31 08:55:00,,0830.1,4.99,0.00,28.8,27.9,00.0,37.9,30.6,16.0,0000.0,0006.43,0002.39,0001.79
2021-10-31 08:56:00,,0830.1,4.99,0.00,28.8,27.9,00.0,37.9,30.6,16.0,0000.0,0006.97,0002.36,0001.80
2021-10-31 08:57:00,,0830.1,5.00,0.00,28.8,27.9,00.0,37.9,30.6,16.1,0000.0,0007.15,0002.39,0001.82
2021-10-31 08:58:00,,0830.1,5.01,0.00,28.8,27.9,00.0,37.9,30.5,16.1,0000.0,0007.22,0002.42,0001.83
2021-10-31 08:59:00,,0830.1,5.00,0.00,28.8,27.8,00.0,37.9,30.5,16.1,0000.0,0007.26,0002.51,0001.84
